Latest Weather Observations for Trepell

IDQ60801

Issued at 7:35 pm EST Friday 28 November 2014 (issued every 30 minutes, with the page automatically refreshed every 10 minutes)

About weather observations | Map of weather stations | Latest weather observations for QLD | Other Formats
Station Details ID: 037036 Name: TREPELL AIRPORT Lat: -21.84 Lon: 140.89 Height: 266.2 m
Data from the previous 72 hours. | See also: Recent months at Trepell
Date/Time
EST
Temp
°C
App
Temp
°C
Dew
Point
Rel
Hum
%
Delta-T
°C
Wind Press
QNH
hPa
Press
MSL
hPa
Rain
since 9 am
mm
Dir
 
Spd
km/h
Gust
km/h
Spd
kts
Gust
kts
28/07:30pm 32.5 31.0 13.2 31 11.7 W 13 15 7 8 1008.5 1006.6 0.0
28/07:00pm 32.9 30.1 12.5 29 12.3 W 19 22 10 12 1008.1 1006.2 0.0
28/06:30pm 33.2 30.8 12.8 29 12.3 W 17 20 9 11 1007.6 1005.7 0.0
28/06:00pm 35.6 34.3 11.3 23 14.5 SSE 9 20 5 11 1007.4 1005.5 0.0
28/05:30pm 36.9 33.0 8.7 18 16.3 E 19 24 10 13 1007.1 1005.2 0.0
28/05:00pm 36.9 34.3 9.5 19 16.1 NE 13 19 7 10 1006.9 1005.0 0.0
28/04:30pm 36.7 32.8 9.3 19 16.0 NE 20 28 11 15 1007.0 1005.1 0.0
28/04:00pm 37.4 33.8 9.9 19 16.2 ENE 19 26 10 14 1007.1 1005.2 0.0
28/03:30pm 37.0 34.5 9.6 19 16.1 ENE 13 20 7 11 1007.4 1005.5 0.0
28/03:00pm 36.8 33.3 8.6 18 16.3 NE 17 24 9 13 1007.9 1006.1 0.0
28/02:30pm 37.5 33.7 9.2 18 16.5 NE 19 26 10 14 1008.4 1006.5 0.0
28/02:00pm 37.7 34.0 9.3 18 16.6 NE 19 30 10 16 1008.8 1006.9 0.0
28/01:30pm 38.6 35.5 11.6 20 16.4 NE 19 24 10 13 1009.2 1007.3 0.0
28/01:00pm 36.5 32.6 12.0 23 14.9 ENE 24 32 13 17 1009.7 1007.8 0.0
28/12:30pm 35.9 32.2 11.5 23 14.6 NE 22 35 12 19 1010.2 1008.3 0.0
28/12:00pm 36.0 33.1 12.2 23 14.4 ENE 19 30 10 16 1010.5 1008.6 0.0
28/11:30am 36.8 33.9 12.9 24 14.7 E 20 28 11 15 1011.0 1009.1 0.0
28/11:00am 35.8 33.4 12.7 25 14.1 NE 17 32 9 17 1011.2 1009.4 0.0
28/10:30am 34.3 31.1 12.0 25 13.4 E 20 32 11 17 1011.6 1009.8 0.0
28/10:00am 34.2 31.6 13.1 28 12.9 ENE 19 22 10 12 1012.0 1010.1 0.0
28/09:30am 33.7 30.9 13.2 29 12.5 NE 20 28 11 15 1012.1 1010.2 0.0
28/09:00am 32.1 29.5 13.8 33 11.2 ENE 20 30 11 16 1012.0 1010.1 1.0
28/08:30am 31.8 28.7 13.5 32 11.1 E 22 32 12 17 1012.0 1010.1 1.0
28/08:00am 29.6 29.9 16.1 44 8.5 E 9 13 5 7 1011.7 1009.9 1.0
28/07:30am 27.6 28.4 17.2 53 6.6 ENE 9 15 5 8 1011.6 1009.8 1.0
28/07:00am 26.0 27.4 17.4 59 5.4 NE 6 9 3 5 1011.5 1009.7 1.0
28/06:30am 24.3 26.9 17.5 66 4.3 CALM 0 0 0 0 1011.6 1009.8 1.0
28/06:00am 23.2 25.1 18.5 75 3.0 NW 6 7 3 4 1011.3 1009.5 1.0
28/05:30am 23.0 24.8 18.7 77 2.7 NW 7 9 4 5 1010.9 1009.0 1.0
28/05:00am 23.0 24.8 18.7 77 2.7 NW 7 9 4 5 1010.9 1009.0 1.0
28/04:30am 22.6 24.2 18.2 76 2.8 W 7 9 4 5 1010.8 1008.9 1.0
28/04:00am 22.5 23.4 18.5 78 2.5 WNW 11 13 6 7 1010.9 1009.0 1.0
28/03:30am 23.0 24.5 17.5 71 3.4 SSW 6 7 3 4 1010.9 1009.0 1.0
28/03:00am 23.4 24.0 17.6 70 3.6 S 11 13 6 7 1010.9 1009.0 1.0
28/02:30am 24.1 23.7 17.1 65 4.4 S 15 19 8 10 1011.3 1009.5 1.0
28/02:00am 25.3 23.7 16.4 57 5.5 SSE 20 28 11 15 1011.5 1009.7 1.0
28/01:30am 26.3 27.6 17.1 57 5.8 E 6 15 3 8 1011.1 1009.3 1.0
28/01:00am 26.2 27.5 17.6 59 5.5 N 7 9 4 5 1011.2 1009.4 1.0
28/12:30am 26.3 27.0 17.1 57 5.8 N 9 13 5 7 1011.6 1009.8 1.0
28/12:00am 26.5 25.9 16.7 55 6.1 NE 15 17 8 9 1012.0 1010.1 1.0
 
Date/Time
EST
Temp
°C
App
Temp
°C
Dew
Point
Rel
Hum
%
Delta-T
°C
Wind Press
QNH
hPa
Press
MSL
hPa
Rain
since 9 am
mm
Dir
 
Spd
km/h
Gust
km/h
Spd
kts
Gust
kts
27/11:30pm 25.9 25.4 17.8 61 5.1 NNE 17 24 9 13 1012.3 1010.4 1.0
27/11:00pm 26.3 24.4 16.8 56 6.0 ENE 22 30 12 16 1012.8 1010.9 1.0
27/10:30pm 25.9 24.6 18.1 62 5.0 E 22 32 12 17 1013.5 1011.6 1.0
27/10:00pm 26.1 24.4 18.2 61 5.1 ESE 24 30 13 16 1013.4 1011.5 1.0
27/09:30pm 26.0 24.2 18.7 64 4.7 ESE 26 37 14 20 1013.2 1011.3 1.0
27/09:00pm 26.3 25.1 19.2 65 4.6 SE 24 35 13 19 1012.9 1011.0 1.0
27/08:30pm 26.4 24.6 18.8 63 4.9 SE 26 33 14 18 1012.3 1010.4 1.0
27/08:00pm 26.0 22.9 18.9 65 4.6 SE 33 46 18 25 1012.1 1010.2 0.8
27/07:57pm 26.7 23.6 18.3 60 5.4 SE 32 46 17 25 1012.0 1010.1 0.6
27/07:30pm 28.1 26.5 16.1 48 7.5 SW 19 28 10 15 1010.5 1008.6 0.0
27/07:00pm 30.2 25.4 11.7 32 10.9 SSW 28 39 15 21 1010.5 1008.6 0.0
27/06:30pm 32.9 29.8 13.5 30 11.9 E 22 28 12 15 1009.8 1007.9 0.0
27/06:00pm 33.2 28.3 13.8 31 11.9 ESE 32 41 17 22 1009.3 1007.4 0.0
27/05:30pm 35.6 33.2 14.3 28 13.3 NW 20 24 11 13 1008.1 1006.2 0.0
27/05:00pm 34.6 30.9 15.0 31 12.3 NW 28 37 15 20 1007.9 1006.1 0.0
27/04:30pm 34.5 30.8 14.9 31 12.3 NW 28 37 15 20 1007.9 1006.1 0.0
27/04:18pm 34.8 30.4 14.1 28 12.8 NW 30 41 16 22 1007.8 1006.0 0.0
27/04:00pm 36.7 35.1 11.5 22 15.2 ENE 11 19 6 10 1007.7 1005.9 0.0
27/03:30pm 37.3 33.9 11.3 21 15.6 ENE 20 33 11 18 1007.9 1006.1 0.0
27/03:07pm 37.3 32.0 11.3 21 15.6 SE 30 48 16 26 1008.3 1006.4 0.0
27/03:00pm 37.3 30.5 12.0 22 15.4 ESE 39 48 21 26 1008.4 1006.5 0.0
27/02:47pm 35.3 29.9 12.9 26 13.7 SE 33 54 18 29 1008.8 1006.9 0.0
27/02:30pm 37.5 33.6 12.2 22 15.4 ENE 24 33 13 18 1008.8 1006.9 0.0
27/02:00pm 37.6 35.1 13.6 24 15.0 NE 19 22 10 12 1009.2 1007.3 0.0
27/01:30pm 38.2 35.2 12.7 21 15.7 NE 20 26 11 14 1009.5 1007.6 0.0
27/01:00pm 37.6 35.7 12.9 23 15.2 E 15 30 8 16 1009.8 1007.9 0.0
27/12:30pm 37.5 34.6 12.8 22 15.2 ENE 20 30 11 16 1010.1 1008.2 0.0
27/12:00pm 36.8 33.5 12.9 24 14.7 NNE 22 33 12 18 1010.5 1008.6 0.0
27/11:30am 36.2 32.6 14.2 26 13.7 N 26 39 14 21 1010.8 1008.9 0.0
27/11:00am 36.2 32.4 13.6 25 14.0 NNE 26 35 14 19 1011.3 1009.5 0.0
27/10:30am 35.7 32.2 14.4 28 13.3 NNE 26 35 14 19 1011.5 1009.7 0.0
27/10:00am 35.0 31.1 14.3 29 12.9 NE 28 35 15 19 1011.6 1009.8 0.0
27/09:30am 33.8 29.5 13.3 29 12.5 NE 28 41 15 22 1011.8 1010.0 0.0
27/09:00am 34.4 30.3 13.8 29 12.7 NE 28 37 15 20 1012.1 1010.2 0.0
27/08:30am 33.1 27.9 12.7 29 12.3 NE 32 39 17 21 1011.8 1010.0 0.0
27/08:00am 32.4 27.1 12.6 30 11.9 ENE 32 41 17 22 1011.4 1009.6 0.0
27/07:30am 31.3 26.6 13.1 33 11.0 E 30 39 16 21 1011.2 1009.4 0.0
27/07:28am 31.3 27.0 13.1 33 11.0 E 28 39 15 21 1011.1 1009.3 0.0
27/07:00am 28.5 28.4 14.0 41 8.8 S 7 7 4 4 1011.2 1009.4 0.0
27/06:30am 26.6 26.7 14.0 46 7.6 SW 6 7 3 4 1010.9 1009.0 0.0
27/06:00am 26.3 26.2 13.8 46 7.5 SW 7 9 4 5 1010.8 1008.9 0.0
27/05:30am 26.3 25.6 13.1 44 7.8 SSW 9 11 5 6 1010.4 1008.5 0.0
27/05:00am 27.7 27.4 13.3 41 8.6 S 7 9 4 5 1010.1 1008.2 0.0
27/04:30am 27.4 26.5 13.7 43 8.2 S 11 13 6 7 1009.6 1007.7 0.0
27/04:00am 27.4 27.0 14.1 44 8.0 SW 9 11 5 6 1009.6 1007.7 0.0
27/03:30am 27.6 27.1 13.9 43 8.2 SW 9 11 5 6 1009.5 1007.6 0.0
27/03:00am 28.0 27.5 13.9 42 8.5 SW 9 11 5 6 1009.4 1007.5 0.0
27/02:30am 28.2 27.8 14.1 42 8.5 SSW 9 11 5 6 1009.5 1007.6 0.0
27/02:00am 28.0 27.5 13.9 42 8.5 S 9 13 5 7 1009.5 1007.6 0.0
27/01:30am 28.0 27.9 13.9 42 8.5 SSW 7 9 4 5 1009.7 1007.8 0.0
27/01:00am 28.1 28.3 14.3 42 8.4 SSE 6 7 3 4 1010.0 1008.1 0.0
27/12:30am 28.2 27.5 14.4 42 8.4 S 11 15 6 8 1010.2 1008.3 0.0
27/12:00am 28.3 27.2 14.2 42 8.6 S 13 17 7 9 1010.5 1008.6 0.0
 
Date/Time
EST
Temp
°C
App
Temp
°C
Dew
Point
Rel
Hum
%
Delta-T
°C
Wind Press
QNH
hPa
Press
MSL
hPa
Rain
since 9 am
mm
Dir
 
Spd
km/h
Gust
km/h
Spd
kts
Gust
kts
26/11:30pm 28.4 27.4 13.5 40 8.9 S 11 13 6 7 1010.6 1008.7 0.0
26/11:00pm 28.8 27.8 13.5 39 9.2 SW 11 13 6 7 1010.7 1008.8 0.0
26/10:30pm 29.3 28.3 12.3 35 10.1 SSW 9 11 5 6 1010.9 1009.0 0.0
26/10:00pm 29.4 27.7 12.3 34 10.1 SSW 13 17 7 9 1010.8 1008.9 0.0
26/09:30pm 29.6 27.5 12.5 35 10.2 S 15 17 8 9 1010.7 1008.8 0.0
26/09:00pm 29.6 27.5 12.5 35 10.2 S 15 19 8 10 1010.6 1008.7 0.0
26/08:30pm 29.8 27.7 11.3 32 10.8 SSE 13 15 7 8 1010.5 1008.6 0.0
26/08:00pm 30.2 28.5 11.2 31 11.1 SSW 11 13 6 7 1010.2 1008.3 0.0
26/07:30pm 30.4 27.6 11.4 31 11.1 SSW 17 20 9 11 1010.0 1008.1 0.0
26/07:00pm 30.3 26.4 10.8 30 11.3 SW 22 28 12 15 1009.8 1007.9 0.0
26/06:30pm 29.9 25.6 11.9 33 10.6 SSW 26 35 14 19 1009.7 1007.8 0.0
26/06:00pm 28.9 24.1 13.9 39 9.1 SSW 32 44 17 24 1009.6 1007.7 0.0
26/05:30pm 30.5 25.0 11.9 31 11.0 S 32 43 17 23 1009.7 1007.8 0.0
26/05:08pm 31.6 27.5 13.8 34 10.9 S 28 46 15 25 1009.5 1007.6 0.0
26/05:00pm 31.5 26.5 13.3 33 11.0 S 32 44 17 24 1009.3 1007.4 0.0
26/04:30pm 34.6 30.4 12.3 26 13.5 SSW 26 32 14 17 1008.7 1006.8 0.0
26/04:00pm 33.6 28.7 12.6 28 12.7 SSW 30 41 16 22 1008.9 1007.0 0.0
26/03:54pm 34.4 29.7 12.1 26 13.4 SSW 28 35 15 19 1008.9 1007.0 0.0
26/03:30pm 35.8 34.5 10.1 21 15.1 W 7 11 4 6 1008.7 1006.8 0.0
26/03:00pm 35.9 35.1 10.9 22 14.9 E 6 11 3 6 1009.1 1007.2 0.0
26/02:30pm 36.0 33.8 10.9 22 14.9 E 13 19 7 10 1009.3 1007.4 0.0
26/02:00pm 36.5 34.8 11.3 22 15.1 NE 11 19 6 10 1009.5 1007.6 0.0
26/01:30pm 36.3 34.6 11.2 22 15.0 NE 11 19 6 10 1009.8 1007.9 0.0
26/01:00pm 35.9 32.6 11.5 23 14.7 NE 20 32 11 17 1010.4 1008.5 0.0
26/12:30pm 35.7 33.9 12.0 24 14.3 NNE 13 22 7 12 1010.8 1008.9 0.0
26/12:00pm 35.4 32.9 12.4 25 14.0 NNE 17 28 9 15 1011.0 1009.1 0.0
26/11:30am 35.5 33.8 12.5 25 14.0 NE 13 28 7 15 1011.3 1009.5 0.0
26/11:00am 34.8 31.9 13.0 26 13.3 ENE 20 32 11 17 1011.6 1009.8 0.0
26/10:30am 34.9 32.1 13.1 27 13.3 NE 20 28 11 15 1012.0 1010.1 0.0
26/10:00am 33.8 29.9 13.3 29 12.5 E 26 39 14 21 1012.2 1010.3 0.0
26/09:30am 33.6 29.2 14.1 30 12.0 E 30 37 16 20 1012.3 1010.4 0.0
26/09:00am 32.6 27.7 14.2 32 11.3 E 33 43 18 23 1012.3 1010.4 0.0
26/08:30am 31.0 25.3 14.2 36 10.3 ESE 37 44 20 24 1011.8 1010.0 0.0
26/08:00am 29.6 24.8 14.6 40 9.2 ESE 33 44 18 24 1012.0 1010.1 0.0
26/07:30am 28.5 24.6 15.4 45 8.1 SE 30 39 16 21 1012.1 1010.2 0.0
26/07:00am 27.6 24.6 15.9 49 7.3 SE 26 35 14 19 1012.2 1010.3 0.0
26/06:30am 26.7 24.6 16.3 53 6.5 SE 22 26 12 14 1012.2 1010.3 0.0
26/06:00am 26.3 24.8 16.3 54 6.2 SE 19 24 10 13 1011.7 1009.9 0.0
26/05:30am 26.1 24.3 16.1 54 6.2 SSE 20 30 11 16 1011.4 1009.6 0.0
26/05:00am 26.3 24.6 16.3 54 6.2 SSE 20 24 11 13 1011.2 1009.4 0.0
26/04:30am 26.4 24.3 16.3 53 6.3 SSE 22 32 12 17 1011.2 1009.4 0.0
26/04:00am 26.5 24.4 16.1 52 6.5 SSE 22 30 12 16 1011.1 1009.3 0.0
26/03:30am 26.6 23.5 16.5 54 6.3 SSE 28 35 15 19 1011.0 1009.1 0.0
26/03:00am 26.7 23.6 16.6 54 6.3 SSE 28 35 15 19 1010.9 1009.0 0.0
26/02:30am 26.8 23.6 16.4 53 6.5 S 28 33 15 18 1010.9 1009.0 0.0
26/02:00am 27.3 23.3 16.3 51 6.9 SSE 32 41 17 22 1011.3 1009.5 0.0
26/01:30am 27.5 24.6 16.1 49 7.1 S 26 37 14 20 1011.2 1009.4 0.0
26/01:00am 27.8 24.5 16.1 49 7.3 S 28 44 15 24 1011.3 1009.5 0.0
26/12:30am 28.5 24.6 15.4 45 8.1 S 30 43 16 23 1011.5 1009.7 0.0
26/12:00am 29.6 25.2 14.2 39 9.4 S 30 43 16 23 1011.5 1009.7 0.0
 
Date/Time
EST
Temp
°C
App
Temp
°C
Dew
Point
Rel
Hum
%
Delta-T
°C
Wind Press
QNH
hPa
Press
MSL
hPa
Rain
since 9 am
mm
Dir
 
Spd
km/h
Gust
km/h
Spd
kts
Gust
kts
25/11:30pm 29.5 27.4 15.2 41 8.8 S 20 30 11 16 1011.3 1009.5 0.0
25/11:00pm 29.5 27.6 15.2 41 8.9 S 19 24 10 13 1011.2 1009.4 0.0
25/10:30pm 29.2 27.7 15.3 42 8.6 S 17 22 9 12 1011.0 1009.1 0.0
25/10:00pm 29.1 27.9 16.0 45 8.2 S 17 22 9 12 1011.1 1009.3 0.0
25/09:30pm 28.8 27.0 16.0 45 8.0 S 20 28 11 15 1011.2 1009.4 0.0
25/09:00pm 28.0 25.9 17.2 52 6.9 SSW 24 30 13 16 1010.8 1008.9 0.0
25/08:30pm 29.8 27.8 15.5 42 8.9 S 20 30 11 16 1011.3 1009.5 0.0
25/08:00pm 33.0 30.2 13.1 30 12.1 SE 20 24 11 13 1010.5 1008.6 0.0

Other Formats:

Comma delimited format used in spreadsheet applications
http://www.bom.gov.au/fwo/IDQ60801/IDQ60801.94338.axf

JavaScript Object Notation format (JSON) in row-major order
http://www.bom.gov.au/fwo/IDQ60801/IDQ60801.94338.json